Regional Weather Roundup
Issued by NWS

Home | Current Version | Previous Version | Text Only | Print | Product List | Glossary On
Versions: 1 2 3 4 5 6 7 8 9 10 11 12 13 14 15 16 17 18 19 20 21 22 23 24 25 26 27 28 29 30 31 32 33 34 35 36 37 38 39 40 41 42 43 44 45 46 47 48 49 50
000
ASUS43 KOAX 192210
RWRNE

WEATHER ROUNDUP FOR NEBRASKA
NATIONAL WEATHER SERVICE OMAHA NE
500 PM CDT TUE AUG 19 2014

NOTES: SATELLITE DATA IS BEING USED TO AUGMENT CLOUD COVER ABOVE
       12000 FEET.
       "FAIR" INDICATES FEW OR NO CLOUDS BELOW 12,000 FEET WITH NO
       SIGNIFICANT WEATHER AND/OR OBSTRUCTIONS TO VISIBILITY.

  * THESE STATIONS DO NOT REPORT WEATHER SUCH AS RAIN...SNOW OR FOG.

NEZ001>004-019>022-054>056-192300-
NEBRASKA PANHANDLE

CITY           SKY/WX    TMP DP  RH WIND       PRES   REMARKS
SCOTTSBLUFF    PTSUNNY   95  50  21 NW10      29.78F HX  92
ALLIANCE       MOSUNNY   91  52  26 S15       29.80F
CHADRON        PTSUNNY   96  44  16 SE5       29.73F HX  92
KIMBALL        PTSUNNY   90  46  21 SE14      29.85F
SIDNEY         MOSUNNY   93  52  24 S17G23    29.84F HX  90
$$

NEZ057>060-069>072-079>082-192300-
SOUTHWEST NEBRASKA

CITY           SKY/WX    TMP DP  RH WIND       PRES   REMARKS
NORTH PLATTE   MOSUNNY   87  66  49 E20G25    29.78F
IMPERIAL       SUNNY     92  55  28 SE15      29.79F HX  90
LEXINGTON      MOSUNNY   86  69  55 SE12      29.81F HX  90
MCCOOK         MOSUNNY   95  60  31 S10G21    29.77F HX  95
OGALLALA       MOSUNNY   91  57  31 S12       29.79F
$$

NEZ005>010-023>029-035>040-094-192300-
NORTH CENTRAL NEBRASKA

CITY           SKY/WX    TMP DP  RH WIND       PRES   REMARKS
VALENTINE      SUNNY     91  59  33 SE15      29.79S HX  90
AINSWORTH      SUNNY     86  60  40 SE14      29.80S
BROKEN BOW     MOSUNNY   87  67  51 SE14      29.81F HX  90
O`NEILL        MOSUNNY   86  62  44 SE12      29.80F
ORD            MOSUNNY   84  66  54 SE10      29.80S
THEDFORD       MOSUNNY   88  59  37 S13       29.81F
$$

NEZ041-046>049-061>064-073>077-083>087-192300-
SOUTH CENTRAL NEBRASKA

CITY           SKY/WX    TMP DP  RH WIND       PRES   REMARKS
GRAND ISLAND   MOSUNNY   88  71  57 SE12      29.81F HX  94
AURORA         SUNNY     88  69  53 S8        29.81F HX  92
HASTINGS       SUNNY     87  66  49 SE8       29.80F
HEBRON         SUNNY     89  64  42 S7        29.80S HX  90
HOLDREGE       MOSUNNY   89  63  41 S13       29.80F
KEARNEY *      MOSUNNY   88  68  51 SE14      29.81F HX  91
YORK           SUNNY     86 N/A N/A S5        29.81F
$$

NEZ011>018-030>034-042>045-192300-
NORTHEAST NEBRASKA

CITY           SKY/WX    TMP DP  RH WIND       PRES   REMARKS
NORFOLK        SUNNY     86  60  41 S3        29.80F
ALBION         SUNNY     84  63  48 SE10      29.81F
BLAIR          SUNNY     86  61  42 CALM      29.81S
COLUMBUS *     SUNNY     84  66  54 SE7       29.81S
FREMONT        SUNNY     88  60  38 CALM      29.81R
TEKAMAH        SUNNY     87  64  46 CALM      29.78F
WAYNE          SUNNY     84  65  52 SE3       29.80F
$$

NEZ050>053-065>068-078-088>093-192300-
SOUTHEAST NEBRASKA

CITY           SKY/WX    TMP DP  RH WIND       PRES   REMARKS
LINCOLN        SUNNY     91  65  41 NE9       29.79F HX  93
OMAHA EPPLEY   MOSUNNY   89  61  38 E5        29.79S
BEATRICE       SUNNY     91  69  48 CALM      29.79F HX  95
FALLS CITY     SUNNY     90  73  57 SE8       29.79F HX  98
NEBRASKA CITY  SUNNY     86  65  50 SE6       29.81S
PLATTSMOUTH    SUNNY     88  63  42 SE5       29.81S
$$

NEZ044-045-051>053-067-192300-
OMAHA AREA

CITY           SKY/WX    TMP DP  RH WIND       PRES   REMARKS
OMAHA EPPLEY   MOSUNNY   89  61  38 E5        29.79S
BLAIR          SUNNY     86  61  42 CALM      29.81S
FREMONT        SUNNY     88  60  38 CALM      29.81R
MILLARD        SUNNY     89  62  39 CALM      29.79R
OFFUTT AFB     SUNNY     88  64  44 S6        29.79S
PLATTSMOUTH    SUNNY     88  63  42 SE5       29.81S
WAHOO          FAIR      87  56  34 CALM      29.80S
$$


USA.gov is the U.S. government's official web portal to all federal, state and local government web resources and services.